This is the latest recevied weather packets stored in our database for station/object KC2BRB-1. If no packets are shown the sender has not sent any weather packets the latest 10 day(s).
| Time | Temp. | Humidity | Pressure | Rain* | Wind** | Luminosity | Snow |
|---|---|---|---|---|---|---|---|
| 1778000372 | 27.78° C | 56% | 1014.3 hPa | 0 mm | - | - | - |
| 1778000302 | 27.78° C | 56% | 1014.3 hPa | 0 mm | - | - | - |
| 1778000234 | 27.78° C | 56% | 1014.3 hPa | 0 mm | - | - | - |
| 1778000093 | 27.78° C | 55% | 1014.3 hPa | 0 mm | - | - | - |
| 1777999934 | 27.78° C | 55% | 1014.3 hPa | 0 mm | - | - | - |
| 1777999334 | 28.33° C | 56% | 1014.2 hPa | 0 mm | - | - | - |
| 1777999202 | 28.33° C | 56% | 1014.2 hPa | 0 mm | - | - | - |
| 1777999034 | 28.33° C | 56% | 1014.2 hPa | 0 mm | - | - | - |
| 1777998513 | 28.33° C | 57% | 1014.4 hPa | 0 mm | - | - | - |
| 1777998435 | 28.33° C | 57% | 1014.4 hPa | 0 mm | - | - | - |
| 1777998209 | 29.44° C | 54% | 1014.4 hPa | 0 mm | - | - | - |
| 1777998134 | 29.44° C | 54% | 1014.4 hPa | 0 mm | - | - | - |
| 1777997834 | 29.44° C | 54% | 1014.4 hPa | 0 mm | - | - | - |
| 1777997692 | 28.89° C | 56% | 1014.3 hPa | 0 mm | - | - | - |
| 1777997534 | 28.89° C | 56% | 1014.3 hPa | 0 mm | - | - | - |
| 1777997405 | 28.89° C | 56% | 1014.3 hPa | 0 mm | - | - | - |
| 1777997235 | 28.89° C | 56% | 1014.3 hPa | 0 mm | - | - | - |
| 1777996935 | 27.78° C | 57% | 1014.5 hPa | 0 mm | - | - | - |
| 1777996635 | 27.78° C | 57% | 1014.5 hPa | 0 mm | - | - | - |
| 1777996335 | 27.78° C | 55% | 1014.5 hPa | 0 mm | - | - | - |
| 1777996111 | 27.78° C | 55% | 1014.5 hPa | 0 mm | - | - | - |
| 1777996035 | 27.78° C | 55% | 1014.5 hPa | 0 mm | - | - | - |
| 1777995816 | 28.33° C | 59% | 1014.3 hPa | 0 mm | - | - | - |
| 1777995735 | 28.33° C | 59% | 1014.3 hPa | 0 mm | - | - | - |
| 1777995517 | 28.33° C | 59% | 1014.3 hPa | 0 mm | - | - | - |
* Rain latest hour (hover to see other rain measurements)
** Current wind speed in m/s (hover to see current wind gust speed)